Flag for U.S.A. Weather past 2 weeks in Dallas, Texas, U.S.A.

Now
41 °F

Drizzle. Fog.


Feels Like: 37 °F
Forecast: 42 / 61 °F
Wind: 6 mph from Southeast

Location: Dallas Love Field

Current Time: Mar 2, 2015 at 9:56:06 PM

Latest Report: Mar 2, 2015 at 8:53 PM


Visibility: 1 mi

Pressure: 30.19 "Hg

Humidity: 96%

Dew point: 40 °F

Location of DallasLocation

Historic Weather in Dallas — Graph

°F

Dallas temperature yesterday

Maximum temperature yesterday: 38 °F (at 2:53 PM)
Minimum temperature yesterday: 33 °F (at 12:53 AM)
Average temperature yesterday: 36 °F

Past Weeks' High & Low Weather Summary

 TemperatureHumidityPressure
High70 °F (Feb 20, 3:53 PM)96% (Feb 25, 3:53 AM)30.59 "Hg (Feb 25, 3:53 AM)
Low26 °F (Feb 23, 8:02 AM)36% (Feb 18, 4:53 PM)29.66 "Hg (Feb 21, 3:53 AM)
Average39 °F75%30.21 "Hg
* Reported Feb 15 7:53 PM — Mar 2 7:53 PM, Dallas, Weather by CustomWeather, © 2015

Note: Actual official high and low records may vary slightly from our data, if they occured in-between our weather recording intervals... More about our weather records

Advertising

Dallas weather history for previous 24 hours

 ConditionsComfort  
Time TempWeatherWind HumidityBarometerVisibility
7:53 PM
Mon, Mar 2
41 °FDrizzle. Fog.3 mph96%30.19 "Hg1 mi
7:03 PM41 °FFog.No wind93%30.21 "Hg2 mi
6:53 PM41 °FFog.3 mph93%30.21 "Hg2 mi
5:53 PM41 °FFog.3 mph93%30.21 "Hg3 mi
4:53 PM42 °FFog.No wind85%30.22 "Hg4 mi
3:53 PM41 °FFog.3 mph89%30.24 "Hg4 mi
2:53 PM41 °FDrizzle. Fog.3 mph86%30.27 "Hg4 mi
1:53 PM41 °FFog.No wind86%30.28 "Hg5 mi
12:53 PM40 °FFog.3 mph86%30.32 "Hg5 mi
11:53 AM39 °FDrizzle. Fog.5 mph89%30.36 "Hg3 mi
11:03 AM37 °FDrizzle. Fog.9 mph93%30.38 "Hg2 mi
10:53 AM37 °FDrizzle. Fog.7 mph93%30.40 "Hg2 mi
9:53 AM36 °FDrizzle. Fog.8 mph92%30.40 "Hg2 mi
8:53 AM35 °FDrizzle. Fog.9 mph96%30.40 "Hg2 mi
7:53 AM35 °FDrizzle. Fog.6 mph92%30.40 "Hg2 mi
6:53 AM35 °FDrizzle. Fog.6 mph92%30.39 "Hg2 mi
5:53 AM35 °FFog.7 mph92%30.38 "Hg4 mi
4:53 AM36 °FFog.8 mph89%30.36 "Hg5 mi
3:53 AM36 °FDrizzle. Fog.7 mph92%30.37 "Hg4 mi
2:53 AM35 °FDrizzle. Fog.10 mph96%30.37 "Hg2 mi
1:53 AM36 °FDrizzle. Fog.10 mph89%30.40 "Hg3 mi
12:53 AM37 °FFog.12 mph86%30.39 "Hg6 mi
11:53 PM
Sun, Mar 1
37 °FDrizzle. Fog.10 mph89%30.40 "Hg3 mi
10:53 PM38 °FMostly cloudy.9 mph86%30.39 "Hg10 mi
9:53 PM38 °FLight rain. Overcast.10 mph86%30.39 "Hg10 mi
Weather by CustomWeather, © 2015

See weather overviewHow to use our weather pages